CAPE
0 40 227 100 67 50 0 0 21 104 189 410 362 279 107 0 0 0 0 0 0 0 0 0 5 0 0 0 0 0 0 0 0 0 0 0 0 0 0 0 0 0 0
0 93 366 271 168 112 9 22 415 436 430 179 17 0 0 0 0 0 0 0 0 0 0 0 0 0 0 0 0 0 0 0 0 0 0 0 0 0 0 0 0 0 0
79 98 342 478 238 217 150 322 470 276 0 0 0 0 0 0 0 0 0 0 0 0 0 0 0 0 0 0 0 0 0 0 0 0 0 0 0 0 0 0 0 0 0
347 472 687 613 520 454 472 531 118 0 0 0 0 0 0 0 0 0 0 0 0 0 0 0 0 0 0 0 0 0 0 0 0 0 5 0 0 0 0 0 0 0 0
592 742 750 566 585 506 327 78 0 0 0 0 0 0 0 0 0 0 0 0 0 0 0 0 0 0 0 0 0 0 0 0 0 0 0 2 3 5 0 0 0 0 0
883 795 636 385 362 220 6 0 0 0 0 0 0 0 0 0 0 0 0 0 0 0 0 0 0 0 0 0 0 0 0 0 0 0 0 5 12 4 0 0 0 0 0
802 720 496 232 90 25 0 0 0 0 0 0 0 0 0 0 0 0 0 0 0 0 0 0 0 0 0 0 0 0 0 0 0 0 0 12 11 15 6 0 0 2 5
674 640 379 99 13 0 0 0 0 0 0 0 0 0 0 0 0 0 0 0 0 0 0 0 0 0 0 0 0 0 0 0 0 0 0 13 20 27 34 18 19 15 14
504 502 172 4 0 0 0 0 0 0 0 0 0 0 0 0 0 0 0 0 0 0 0 0 0 0 0 0 0 0 0 0 0 0 0 4 15 24 30 36 37 45 51
386 216 23 0 0 0 0 0 0 0 0 0 0 0 0 0 0 0 0 0 0 0 0 0 0 0 0 0 0 0 0 0 0 0 0 0 0 0 0 4 20 39 50
201 61 0 0 0 0 0 0 0 0 0 0 0 0 0 0 0 0 0 0 0 0 0 0 0 0 0 0 0 0 0 0 0 0 0 0 0 0 0 0 0 0 15
67 9 0 0 0 0 0 0 0 0 0 0 0 0 0 0 0 0 0 0 0 0 0 0 0 0 0 0 0 0 0 0 0 0 0 0 0 0 0 0 1 0 2
1 1 0 0 0 0 0 0 0 0 0 0 0 0 0 0 0 0 0 0 0 0 0 0 0 0 0 0 0 0 0 0 0 0 0 0 3 4 4 2 4 7 15
0 0 0 0 0 0 0 0 0 0 0 0 0 0 0 0 0 0 0 0 0 0 0 0 0 0 0 0 0 0 0 0 0 0 0 0 0 2 4 6 4 13 5
0 0 0 0 0 0 0 0 0 0 0 0 0 0 0 0 0 0 0 0 0 0 0 0 0 0 0 0 0 0 0 0 0 0 0 0 1 4 3 1 1 8 7
0 0 0 0 0 0 0 0 0 0 0 0 0 0 0 0 0 0 0 0 0 0 0 0 0 0 0 0 0 0 0 0 0 0 0 2 3 0 0 0 1 1 8
0 0 0 0 0 0 0 0 0 0 0 0 0 0 0 0 0 0 0 0 0 0 0 0 0 0 0 0 0 0 0 0 0 1 2 2 2 1 3 3 3 5 5
0 0 0 0 0 0 0 0 0 0 0 0 0 0 0 0 0 0 0 0 0 0 0 0 0 0 0 0 0 0 0 0 1 0 2 2 3 2 7 8 2 1 3
0 0 0 0 0 0 0 0 0 0 0 0 0 0 0 0 0 0 0 0 0 0 0 0 0 0 0 0 0 0 0 0 0 2 1 0 3 7 5 5 3 0 2
0 0 0 0 0 0 0 0 0 0 0 0 0 0 0 0 0 0 0 0 0 0 0 0 0 0 0 0 0 0 0 0 0 0 0 3 3 1 0 1 0 2 9
0 0 0 0 0 0 0 0 0 0 0 0 0 0 0 0 0 0 0 0 0 0 0 0 0 0 0 0 0 0 0 0 0 0 0 1 1 0 0 0 2 6 6
0 0 0 0 0 0 0 0 0 0 0 0 0 0 0 0 0 0 0 0 0 0 0 0 0 0 0 0 0 0 1 0 0 0 1 0 0 0 0 0 1 1 1
0 0 1 0 0 0 0 0 0 0 0 0 0 0 0 0 0 0 0 0 0 0 0 0 0 0 0 0 0 1 2 1 1 0 1 1 0 0 0 0 0 1 5
1 1 1 0 0 0 0 0 0 0 0 0 0 0 0 0 0 0 0 0 0 0 0 0 0 0 0 0 1 1 0 0 0 0 0 0 0 0 0 0 0 1 8
2 1 0 0 0 0 0 0 0 0 0 0 0 0 0 0 0 0 0 0 0 0 0 0 0 0 0 0 0 0 0 1 1 0 0 0 0 0 0 0 0 0 0
1 1 0 0 0 0 0 0 0 0 0 0 0 0 0 0 0 0 0 0 0 0 0 0 0 0 0 0 0 0 0 1 1 0 0 0 0 0 0 0 0 0 0
CIN
0 -366 -246 -316 -335 -371 0 0 -441 -293 -196 -88 -94 -120 -216 0 0 0 0 0 0 0 0 0 -174 0 0 0 0 0 0 0 0 0 0 0 0 0 0 0 0 0 0
0 -310 -196 -208 -248 -267 -243 -336 -115 -105 -90 -213 -102 0 0 0 0 0 0 0 0 0 0 0 0 0 0 0 0 0 0 0 0 0 0 0 0 0 0 0 0 0 0
-350 -312 -184 -132 -186 -197 -204 -140 -85 -128 0 0 0 0 0 0 0 0 0 0 0 0 0 0 0 0 0 0 0 0 0 0 0 0 0 0 0 0 0 0 0 0 0
-233 -175 -99 -84 -113 -116 -96 -76 -182 0 0 0 0 0 0 0 0 0 0 0 0 0 0 0 0 0 0 0 0 0 0 0 0 0 -1 0 0 0 0 0 0 0 0
-182 -129 -96 -91 -93 -111 -121 -194 0 0 0 0 0 0 0 0 0 0 0 0 0 0 0 0 0 0 0 0 0 0 0 0 0 0 0 -2 -7 -14 -1 0 0 0 0
-142 -128 -115 -134 -120 -141 -197 0 0 0 0 0 0 0 0 0 0 0 0 0 0 0 0 0 0 0 0 0 0 0 0 0 0 0 0 -2 -7 -9 -1 0 0 0 0
-156 -137 -148 -179 -220 -228 0 0 0 0 0 0 0 0 0 0 0 0 0 0 0 0 0 0 0 0 0 0 0 0 0 0 0 0 0 0 -1 -4 -4 0 0 0 0
-184 -172 -183 -243 -309 0 0 0 0 0 0 0 0 0 0 0 0 0 0 0 0 0 0 0 0 0 0 0 0 0 0 0 0 0 0 -1 -1 0 0 0 -1 -1 0
-219 -191 -251 -68 0 0 0 0 0 0 0 0 0 0 0 0 0 0 0 0 0 0 0 0 0 0 0 0 0 0 0 0 0 0 0 -5 -2 0 0 0 -1 0 -1
-235 -245 -243 0 0 0 0 0 0 0 0 0 0 0 0 0 0 0 0 0 0 0 0 0 0 0 0 0 0 0 0 0 0 0 0 0 0 0 0 0 -1 -1 -1
-281 -295 0 0 0 0 0 0 0 0 0 0 0 0 0 0 0 0 0 0 0 0 0 0 0 0 0 0 0 0 0 0 0 0 0 0 0 0 0 0 0 0 0
-371 -259 0 0 0 0 0 0 0 0 0 0 0 0 0 0 0 0 0 0 0 0 0 0 0 0 0 0 0 0 0 0 0 0 0 0 0 0 0 0 -1 0 -1
-127 -174 0 0 0 0 0 0 0 0 0 0 0 0 0 0 0 0 0 0 0 0 0 0 0 0 0 0 0 0 0 0 0 0 0 0 0 0 0 -1 -1 0 -1
-16 0 0 0 0 0 0 0 0 0 0 0 0 0 0 0 0 0 0 0 0 0 0 0 0 0 0 0 0 0 0 0 0 0 0 0 0 0 0 0 0 0 0
0 0 0 0 0 0 0 0 0 0 0 0 0 0 0 0 0 0 0 0 0 0 0 0 0 0 0 0 0 0 0 0 0 0 0 0 0 0 0 0 0 0 0
0 0 0 0 0 0 0 0 0 0 0 0 0 0 0 0 0 0 0 0 0 0 0 0 0 0 0 0 0 0 0 0 0 0 0 0 0 0 0 0 0 0 0
0 0 0 0 0 0 0 0 0 0 0 0 0 0 0 0 0 0 0 0 0 0 0 0 0 0 0 0 0 0 0 0 0 0 0 0 0 0 0 0 0 0 0
0 0 0 0 0 0 0 0 0 0 0 0 0 0 0 0 0 0 0 0 0 0 0 0 0 0 0 0 0 0 0 -1 0 0 0 0 -2 -1 0 0 0 0 0
0 0 0 0 0 0 0 0 0 0 0 0 0 0 0 0 0 0 0 0 0 0 0 0 0 0 0 0 -2 0 0 -1 0 0 0 -1 0 0 0 0 -2 -5 -7
0 0 0 0 0 0 0 0 0 0 0 0 0 0 0 0 0 0 0 0 0 0 0 0 0 0 0 0 0 0 0 0 -1 0 0 0 0 0 0 0 0 -9 -4
0 0 0 0 0 0 0 0 0 0 0 0 0 0 0 0 0 0 0 0 0 0 0 0 0 0 0 0 0 0 0 0 -1 0 0 0 0 0 0 0 0 -1 -2
0 0 0 0 0 0 0 0 0 0 0 0 0 0 0 0 0 0 0 0 0 0 0 0 0 0 0 0 0 -1 0 -1 0 0 -1 0 0 0 0 0 0 0 0
0 0 0 0 0 0 0 0 0 0 0 0 0 0 0 0 0 0 0 0 0 0 0 0 0 0 0 0 0 -1 0 0 0 0 -1 0 0 0 0 0 0 0 -1
0 0 0 0 0 0 0 0 0 0 0 0 0 0 0 0 0 0 0 0 0 0 0 0 0 0 -11 0 -8 -1 0 -1 0 0 0 -1 0 0 0 0 0 -3 0
0 0 0 0 0 0 0 0 0 0 0 0 0 0 0 0 0 0 0 0 0 0 0 0 0 0 0 -1 0 -2 0 0 0 0 0 0 -1 -1 0 0 0 0 0
0 0 0 0 0 0 0 0 0 0 0 0 0 0 0 0 0 0 0 0 0 0 0 0 0 0 0 0 0 0 0 0 0 0 0 0 0 0 0 0 0 0 0
Wind_Speed
1 3 5 9 11 12 12 12 12 13 13 14 17 17 17 18 19 20 21 23 24 24 24 24 25 25 26 26 26 26 27 27 28 28 29 30 31 32 33 34 34 34 34
3 2 4 6 6 7 8 10 13 13 13 15 15 15 16 17 19 20 21 23 24 23 24 24 25 26 27 28 25 27 27 27 28 29 30 30 32 32 32 33 35 37 38
5 4 4 4 4 5 6 8 12 12 13 13 15 15 16 18 19 20 21 21 22 24 24 25 25 27 28 29 28 28 29 28 29 30 31 31 32 32 33 35 37 39 39
7 6 7 6 5 4 5 8 10 11 12 12 14 16 16 17 18 19 19 21 22 24 26 26 27 30 31 30 30 31 32 32 31 30 30 30 31 31 33 35 37 38 38
8 8 7 5 5 5 7 8 9 10 12 13 13 16 16 17 18 18 20 21 23 25 26 28 29 31 32 32 33 33 33 33 34 35 32 30 32 33 34 36 37 38 38
8 8 7 6 6 7 8 7 7 11 12 11 13 16 15 17 18 18 19 21 23 25 27 29 31 32 32 34 34 35 34 33 34 36 34 32 31 32 34 36 37 38 39
9 8 8 8 7 7 6 6 8 9 12 12 14 18 17 17 18 19 19 21 24 26 29 30 30 31 33 34 35 35 35 35 36 36 34 32 34 36 38 39 39 39 40
12 10 10 9 7 7 6 5 7 10 12 12 14 16 19 19 19 19 19 22 25 28 30 30 30 33 33 33 33 34 36 37 38 37 36 37 39 39 40 41 41 41 41
14 13 11 10 9 8 7 6 6 7 10 13 12 16 20 21 22 20 20 22 26 29 30 30 32 33 33 32 32 33 36 38 39 39 39 40 41 43 44 45 43 42 41
13 14 13 12 11 10 9 8 8 9 9 11 14 17 18 19 23 27 23 24 28 29 29 30 31 31 30 32 32 35 38 40 41 42 43 43 45 45 45 45 43 43 42
13 15 15 14 13 12 10 10 9 9 9 11 15 16 19 21 21 23 29 26 27 26 28 31 30 30 31 33 33 37 40 41 43 45 46 48 48 48 46 45 46 45 45
14 16 17 17 15 14 12 11 10 10 10 12 13 15 18 21 22 23 26 29 31 27 32 26 29 32 31 34 37 41 43 44 46 48 48 48 47 46 44 44 44 45 45
16 17 18 18 17 15 14 11 11 11 11 12 13 15 17 19 20 22 24 26 29 30 28 30 28 29 31 37 40 43 43 45 47 46 46 44 44 43 42 43 42 41 41
17 16 17 18 18 16 14 13 13 12 11 12 13 16 16 19 19 21 22 25 30 28 29 27 27 30 37 42 42 45 45 46 45 44 43 43 42 42 41 41 40 40 38
18 17 17 18 18 17 16 15 14 13 12 13 14 15 18 19 20 21 22 23 26 32 33 29 30 34 41 41 43 44 45 43 43 42 42 42 42 41 40 40 40 39 39
17 17 16 18 18 18 17 15 14 13 13 14 15 16 17 19 19 21 22 23 25 26 32 30 32 36 39 40 40 41 40 41 40 41 41 41 41 41 41 40 40 41 42
15 15 16 16 18 19 18 15 14 14 13 14 15 16 17 18 19 21 21 23 25 26 32 32 32 36 38 42 42 40 39 39 39 40 41 41 41 41 39 41 41 42 43
15 15 15 16 17 19 18 15 15 13 13 13 14 15 21 19 20 20 21 23 25 26 30 36 36 38 41 42 41 41 40 37 38 40 41 40 40 39 39 40 39 38 36
16 14 13 12 13 16 17 14 13 13 12 12 15 16 19 20 19 20 20 23 25 27 29 33 37 38 39 40 42 39 39 38 38 40 39 40 42 40 38 35 32 27 26
15 12 12 12 14 13 12 9 16 15 11 12 15 19 17 18 18 19 21 23 25 28 31 35 38 39 40 41 39 42 44 40 43 41 38 41 39 37 34 27 20 17 16
14 11 10 10 9 15 13 11 10 17 16 17 18 17 17 15 16 17 21 22 25 29 32 35 38 38 40 42 43 41 43 44 44 39 41 43 38 35 31 26 22 22 17
13 12 10 10 9 12 11 13 12 12 14 21 14 14 14 13 14 18 19 22 25 28 31 33 36 39 39 39 37 41 43 46 48 39 45 41 36 33 27 23 18 15 17
13 12 11 10 10 9 9 9 13 14 11 13 13 13 13 14 14 17 20 22 24 26 27 30 35 36 37 35 35 39 40 41 43 41 40 37 34 32 27 23 17 22 28
13 12 11 10 10 9 7 8 10 9 10 13 12 13 12 14 15 17 21 22 24 26 28 29 30 32 31 30 31 33 36 38 36 37 35 35 34 33 30 22 21 24 16
13 12 11 10 10 9 7 6 7 8 8 11 10 12 11 13 14 17 19 21 23 26 27 29 30 31 31 31 31 33 36 39 40 39 32 37 34 28 31 22 25 25 24
13 11 10 9 9 9 8 7 8 10 10 10 10 9 10 12 13 15 17 19 24 27 29 30 30 30 29 31 31 31 32 36 38 35 33 38 35 37 30 27 24 31 22
Wind_Direction
264 319 327 326 325 326 332 335 338 340 343 343 341 343 349 351 352 353 354 353 354 354 355 355 355 356 356 353 351 349 348 346 343 340 338 336 334 331 328 326 323 321 320
226 280 307 325 327 333 336 337 332 333 340 341 345 348 348 350 348 348 350 349 352 353 354 356 357 356 353 351 353 351 348 344 341 338 336 334 332 330 329 326 323 319 316
246 257 288 301 314 330 332 330 326 335 338 346 343 345 344 344 347 348 349 352 352 353 355 354 354 351 349 350 349 347 345 343 339 335 332 332 331 331 329 326 324 321 318
244 258 288 286 302 314 319 318 325 328 334 339 337 336 340 345 349 351 354 353 351 348 348 350 349 346 345 346 346 343 340 338 337 335 334 333 332 330 330 328 326 324 321
240 256 274 275 301 307 306 311 321 326 325 327 331 333 338 343 346 350 350 349 349 350 350 348 347 345 344 343 340 339 338 337 335 334 333 330 328 327 328 328 326 325 322
240 252 254 264 287 299 303 310 315 320 323 327 329 328 335 339 342 346 348 349 349 348 347 344 343 342 343 341 341 339 338 336 334 332 329 327 327 327 327 326 324 322 321
237 245 250 258 271 280 279 296 314 317 320 323 323 322 329 334 338 341 344 344 343 343 343 344 344 345 343 343 342 343 343 340 336 334 331 328 326 325 324 323 322 321 320
242 241 238 240 248 269 264 273 295 311 317 319 320 325 323 327 328 336 341 342 343 342 342 344 345 343 344 344 347 346 343 340 337 334 332 328 325 323 321 321 319 316 315
244 237 235 234 243 248 242 242 273 291 303 314 319 321 323 323 330 333 334 339 341 341 342 343 342 343 344 346 346 345 343 341 339 338 335 331 328 324 322 320 319 318 315
244 241 237 236 240 247 242 249 270 285 296 299 315 321 326 329 326 326 333 332 337 339 341 342 343 345 348 346 345 343 340 338 336 335 332 329 325 323 321 320 318 316 314
242 239 242 243 242 244 247 252 267 274 288 297 308 317 322 327 330 326 324 330 333 337 341 341 344 346 347 345 344 341 339 337 335 332 329 326 323 321 320 319 317 314 311
246 243 238 241 239 239 244 254 266 273 284 299 308 315 320 325 325 326 326 327 328 334 335 343 344 344 346 345 343 339 337 335 333 331 330 327 325 323 322 320 319 316 313
249 244 240 241 243 242 248 253 262 272 282 293 304 314 322 325 330 330 330 330 330 333 339 341 344 347 347 342 340 339 338 336 335 334 332 331 329 328 326 324 322 320 318
253 256 244 245 245 242 245 253 264 272 281 292 302 311 322 324 329 331 332 332 330 333 337 340 345 347 343 340 340 339 338 337 337 337 336 334 333 332 330 328 326 323 321
263 255 247 242 239 239 242 252 260 270 279 292 301 311 318 324 330 334 336 335 332 331 334 341 341 343 340 342 341 341 340 341 341 340 338 336 335 333 332 330 328 326 322
255 248 247 238 240 242 246 250 259 271 281 293 302 311 321 324 331 333 336 337 337 335 333 339 341 341 342 343 344 344 344 343 342 341 339 337 336 334 333 330 328 327 324
244 237 236 236 236 238 241 246 257 268 277 289 301 311 320 326 327 329 336 338 338 340 334 339 342 342 343 343 344 346 346 345 344 343 341 339 337 335 334 332 328 325 323
252 244 241 242 239 242 243 245 256 264 271 285 300 310 317 321 326 331 335 338 339 342 340 337 341 342 343 345 346 346 348 348 345 343 343 341 339 336 333 332 330 330 328
259 260 260 260 257 266 261 269 268 272 272 284 297 310 312 321 322 328 337 338 340 342 343 342 341 344 346 347 347 350 350 349 348 346 346 344 343 340 338 335 337 337 338
255 260 264 258 248 220 246 251 273 277 288 295 310 312 315 319 321 326 334 339 342 342 343 343 342 345 348 349 351 350 350 352 349 350 352 349 348 348 349 348 340 337 334
259 253 264 267 259 257 258 255 260 264 287 288 313 311 317 318 325 334 334 339 341 342 343 344 345 348 349 351 352 354 351 350 351 354 355 352 354 355 355 352 349 348 340
254 255 256 236 234 252 253 262 285 274 288 288 308 313 319 319 336 334 339 343 343 344 345 347 348 349 350 353 355 354 353 352 351 357 353 353 357 355 357 355 346 338 347
249 251 252 233 261 241 249 255 280 291 285 290 304 314 315 320 334 336 340 343 345 347 351 352 349 352 353 356 357 356 356 354 352 353 356 355 0 357 357 353 353 357 352
248 244 247 242 239 255 235 263 277 282 292 296 306 311 310 319 334 336 338 343 346 350 353 357 355 356 358 360 1 0 357 355 357 360 2 360 2 360 359 2 3 1 335
247 244 235 235 237 236 233 237 275 285 290 299 314 310 313 321 332 336 339 342 348 352 357 358 359 1 3 6 6 4 2 359 359 1 10 3 4 359 5 10 10 3 7
244 236 242 244 232 232 226 245 264 277 284 301 309 311 317 327 336 339 342 348 346 352 357 358 1 4 8 9 10 9 5 3 2 5 9 3 6 7 10 17 4 12 13